When you browse on this site, cookies collect data to enhance your experience and personalize the content and advertising you see.
Visit our Privacy Policy to learn more. By continuing to use the site, you agree to this use of cookies and data.
  • In Hungary
  • List of Countries
  • For 7 days
  • Water Temperature
  • Satellite Maps
  • Weather Map
  • News
  • Weather Widgets
  • user-avatar
    Login

    Hourly Weather Bihać

    Today, 13 December, Thursday

    Time Temperature Precipitation Wind Pressure Humidity
    00:00 -2°C° 0 mm 2 mps 711 mmHg 75%
    01:00 -2°C° 0 mm 2 mps 710 mmHg 74%
    02:00 -2°C° 0 mm 2 mps 710 mmHg 73%
    03:00 -2°C° 0 mm 2 mps 710 mmHg 73%
    04:00 -2°C° 0 mm 3 mps 710 mmHg 72%
    05:00 -2°C° 0.1 mm 3 mps 709 mmHg 72%
    06:00 -2°C° 0.1 mm 3 mps 709 mmHg 73%
    07:00 -2°C° 0.1 mm 3 mps 709 mmHg 73%
    08:00 -2°C° 0.2 mm 3 mps 709 mmHg 71%
    09:00 -2°C° 0.2 mm 4 mps 709 mmHg 70%
    10:00 -2°C° 0.2 mm 4 mps 708 mmHg 68%
    11:00 -2°C° 0.4 mm 4 mps 708 mmHg 72%
    12:00 -2°C° 0.4 mm 4 mps 708 mmHg 75%
    13:00 -2°C° 0.4 mm 4 mps 708 mmHg 78%
    14:00 -2°C° 0.7 mm 4 mps 708 mmHg 81%
    15:00 -2°C° 0.7 mm 4 mps 707 mmHg 84%
    16:00 -3°C° 0.7 mm 4 mps 707 mmHg 87%
    17:00 -3°C° 0.7 mm 4 mps 707 mmHg 87%
    18:00 -3°C° 0.7 mm 4 mps 707 mmHg 88%
    19:00 -3°C° 0.7 mm 4 mps 707 mmHg 88%
    20:00 -3°C° 0.5 mm 4 mps 707 mmHg 88%
    21:00 -3°C° 0.5 mm 4 mps 707 mmHg 89%
    22:00 -3°C° 0.5 mm 4 mps 707 mmHg 89%
    23:00 -3°C° 0.3 mm 4 mps 707 mmHg 89%

    Tomorrow, 14 December, Friday

    Time Temperature Precipitation Wind Pressure Humidity
    00:00 -3°C° 0.3 mm 4 mps 708 mmHg 89%
    01:00 -3°C° 0.3 mm 4 mps 708 mmHg 89%
    02:00 -3°C° 0.3 mm 4 mps 708 mmHg 89%
    03:00 -3°C° 0.3 mm 4 mps 708 mmHg 90%
    04:00 -3°C° 0.3 mm 4 mps 708 mmHg 90%
    05:00 -3°C° 0.5 mm 4 mps 708 mmHg 90%
    06:00 -4°C° 0.5 mm 4 mps 708 mmHg 90%
    07:00 -4°C° 0.5 mm 4 mps 708 mmHg 90%
    08:00 -5°C° 0.6 mm 5 mps 708 mmHg 89%
    09:00 -5°C° 0.6 mm 5 mps 708 mmHg 89%
    10:00 -5°C° 0.6 mm 5 mps 708 mmHg 88%
    11:00 -5°C° 0.7 mm 5 mps 708 mmHg 89%
    12:00 -5°C° 0.7 mm 5 mps 708 mmHg 89%
    13:00 -5°C° 0.7 mm 5 mps 708 mmHg 89%
    14:00 -5°C° 0.7 mm 5 mps 708 mmHg 89%
    15:00 -5°C° 0.7 mm 5 mps 708 mmHg 89%
    16:00 -5°C° 0.7 mm 5 mps 708 mmHg 89%
    17:00 -5°C° 0.5 mm 5 mps 708 mmHg 89%
    18:00 -5°C° 0.5 mm 5 mps 708 mmHg 90%
    19:00 -5°C° 0.5 mm 5 mps 708 mmHg 90%
    20:00 -5°C° 0.5 mm 5 mps 708 mmHg 90%
    21:00 -5°C° 0.5 mm 5 mps 708 mmHg 90%
    22:00 -5°C° 0.5 mm 5 mps 709 mmHg 90%
    23:00 -5°C° 0.4 mm 5 mps 708 mmHg 90%

    Day after tomorrow, 15 December, Saturday

    Time Temperature Precipitation Wind Pressure Humidity
    00:00 -5°C° 0.4 mm 5 mps 708 mmHg 90%
    01:00 -4°C° 0.4 mm 4 mps 708 mmHg 90%
    02:00 -4°C° 0.2 mm 4 mps 708 mmHg 90%
    03:00 -4°C° 0.2 mm 4 mps 708 mmHg 90%
    04:00 -4°C° 0.2 mm 4 mps 708 mmHg 90%
    05:00 -5°C° 0.1 mm 4 mps 708 mmHg 89%
    06:00 -6°C° 0.1 mm 5 mps 709 mmHg 89%
    07:00 -6°C° 0.1 mm 5 mps 709 mmHg 89%
    08:00 -6°C° 0.1 mm 5 mps 709 mmHg 88%
    09:00 -5°C° 0.1 mm 5 mps 709 mmHg 87%
    10:00 -5°C° 0.1 mm 5 mps 710 mmHg 86%
    11:00 -4°C° 0.1 mm 5 mps 710 mmHg 85%
    12:00 -4°C° 0.1 mm 5 mps 710 mmHg 84%
    13:00 -4°C° 0.1 mm 5 mps 710 mmHg 84%
    14:00 -4°C° 0.1 mm 5 mps 710 mmHg 85%
    15:00 -5°C° 0.1 mm 5 mps 710 mmHg 85%
    16:00 -5°C° 0.1 mm 5 mps 710 mmHg 86%
    17:00 -5°C° 0.1 mm 5 mps 710 mmHg 87%
    18:00 -6°C° 0.1 mm 5 mps 710 mmHg 87%
    19:00 -6°C° 0.1 mm 5 mps 711 mmHg 87%
    20:00 -5°C° 0 mm 4 mps 711 mmHg 88%
    21:00 -5°C° 0 mm 4 mps 711 mmHg 88%
    22:00 -5°C° 0 mm 4 mps 711 mmHg 88%
    23:00 -6°C° 0 mm 3 mps 711 mmHg 89%

    16 December, Sunday

    Time Temperature Precipitation Wind Pressure Humidity
    00:00 -6°C° 0 mm 3 mps 711 mmHg 89%
    01:00 -7°C° 0 mm 3 mps 711 mmHg 90%
    02:00 -7°C° 0 mm 3 mps 711 mmHg 90%
    03:00 -7°C° 0 mm 3 mps 711 mmHg 90%
    04:00 -8°C° 0 mm 3 mps 711 mmHg 90%
    05:00 -7°C° 0 mm 2 mps 711 mmHg 89%
    06:00 -7°C° 0 mm 2 mps 711 mmHg 89%
    07:00 -8°C° 0 mm 2 mps 711 mmHg 88%
    08:00 -6°C° 0 mm 2 mps 711 mmHg 85%
    09:00 -5°C° 0 mm 2 mps 711 mmHg 82%
    10:00 -1°C° 0 mm 1 mps 711 mmHg 80%
    11:00 0°C° 0 mm 1 mps 711 mmHg 79%
    12:00 +2°C° 0 mm 1 mps 711 mmHg 78%
    13:00 +3°C° 0 mm 1 mps 711 mmHg 77%
    14:00 +2°C° 0 mm 1 mps 711 mmHg 79%
    15:00 +1°C° 0 mm 1 mps 710 mmHg 80%
    16:00 0°C° 0 mm 1 mps 710 mmHg 82%
    17:00 0°C° 0 mm 1 mps 710 mmHg 81%
    18:00 -1°C° 0 mm 1 mps 710 mmHg 80%
    19:00 -1°C° 0 mm 1 mps 710 mmHg 79%
    20:00 0°C° 0.1 mm 1 mps 710 mmHg 78%
    21:00 0°C° 0.1 mm 1 mps 711 mmHg 78%
    22:00 +1°C° 0.1 mm 1 mps 711 mmHg 77%
    23:00 +1°C° 0.3 mm 1 mps 711 mmHg 80%

    17 December, Monday

    Time Temperature Precipitation Wind Pressure Humidity
    00:00 -1°C° 0.3 mm 2 mps 711 mmHg 83%
    01:00 -2°C° 0.3 mm 2 mps 711 mmHg 86%
    02:00 -2°C° 0.1 mm 2 mps 711 mmHg 86%
    03:00 -2°C° 0.1 mm 2 mps 710 mmHg 86%
    04:00 -3°C° 0.1 mm 2 mps 710 mmHg 86%
    05:00 -2°C° 0.2 mm 2 mps 710 mmHg 87%
    06:00 0°C° 0.2 mm 1 mps 710 mmHg 87%
    07:00 0°C° 0.2 mm 1 mps 710 mmHg 88%
    08:00 0°C° 0.3 mm 1 mps 711 mmHg 89%
    09:00 +1°C° 0.3 mm 1 mps 711 mmHg 90%
    10:00 -1°C° 0.3 mm 2 mps 712 mmHg 90%
    11:00 +1°C° 0.1 mm 2 mps 712 mmHg 90%
    12:00 +1°C° 0.1 mm 2 mps 712 mmHg 90%
    13:00 +2°C° 0.1 mm 2 mps 712 mmHg 90%
    14:00 +1°C° 0 mm 2 mps 712 mmHg 91%
    15:00 +1°C° 0 mm 2 mps 712 mmHg 91%
    16:00 -1°C° 0 mm 2 mps 712 mmHg 91%
    17:00 -2°C° 0 mm 2 mps 712 mmHg 91%
    18:00 -2°C° 0 mm 2 mps 713 mmHg 91%
    19:00 -4°C° 0 mm 3 mps 713 mmHg 91%
    20:00 -4°C° 0 mm 3 mps 713 mmHg 90%
    21:00 -5°C° 0 mm 3 mps 713 mmHg 90%
    22:00 -5°C° 0 mm 3 mps 713 mmHg 89%
    23:00 -5°C° 0 mm 3 mps 713 mmHg 89%

    18 December, Tuesday

    Time Temperature Precipitation Wind Pressure Humidity
    00:00 -5°C° 0 mm 3 mps 713 mmHg 89%
    01:00 -5°C° 0 mm 3 mps 713 mmHg 89%
    02:00 -5°C° 0 mm 3 mps 713 mmHg 89%
    03:00 -5°C° 0 mm 3 mps 713 mmHg 89%
    04:00 -5°C° 0 mm 3 mps 713 mmHg 89%
    05:00 -5°C° 0 mm 4 mps 713 mmHg 89%
    06:00 -5°C° 0 mm 4 mps 713 mmHg 89%
    07:00 -5°C° 0 mm 4 mps 713 mmHg 89%
    08:00 -4°C° 0 mm 4 mps 714 mmHg 88%
    09:00 -3°C° 0 mm 4 mps 714 mmHg 87%
    10:00 -2°C° 0 mm 4 mps 714 mmHg 86%
    11:00 -1°C° 0 mm 4 mps 714 mmHg 86%
    12:00 -1°C° 0 mm 4 mps 714 mmHg 85%
    13:00 0°C° 0 mm 4 mps 714 mmHg 85%
    14:00 0°C° 0 mm 3 mps 713 mmHg 86%
    15:00 0°C° 0 mm 3 mps 713 mmHg 87%
    16:00 -1°C° 0 mm 3 mps 713 mmHg 88%
    17:00 -2°C° 0 mm 3 mps 713 mmHg 89%
    18:00 -2°C° 0 mm 3 mps 713 mmHg 90%
    19:00 -4°C° 0 mm 3 mps 714 mmHg 91%
    20:00 -4°C° 0 mm 3 mps 714 mmHg 91%
    21:00 -4°C° 0 mm 2 mps 714 mmHg 91%
    22:00 -4°C° 0 mm 2 mps 714 mmHg 91%
    23:00 -4°C° 0 mm 2 mps 713 mmHg 91%
    Show more